Time,TemperatureF,DewpointF,PressureIn,WindDirection,WindDirectionDegrees,WindSpeedMPH,WindSpeedGustMPH,Humidity,HourlyPrecipIn,Conditions,Clouds,dailyrainin,SolarRadiationWatts/m^2,SoftwareType,DateUTC
2013-04-23 00:00:00,68.7,60.1,29.86,East,90,3.0,3.0,74,0.00,,,0.00,0,Wunderground v.1.15,2013-04-23 05:00:00,
2013-04-23 00:10:00,68.2,59.6,29.86,NNE,13,4.0,4.0,74,0.00,,,0.00,0,Wunderground v.1.15,2013-04-23 05:10:00,
2013-04-23 00:15:00,68.1,59.5,29.86,ENE,78,4.0,4.0,74,0.00,,,0.00,0,Wunderground v.1.15,2013-04-23 05:15:00,
2013-04-23 00:20:00,67.9,59.3,29.86,West,273,3.0,6.0,74,0.00,,,0.00,0,Wunderground v.1.15,2013-04-23 05:20:00,
2013-04-23 00:25:00,67.7,59.1,29.86,ESE,121,3.0,6.0,74,0.00,,,0.00,0,Wunderground v.1.15,2013-04-23 05:25:00,
2013-04-23 00:30:00,67.5,59.3,29.86,WSW,240,3.0,6.0,75,0.00,,,0.00,0,Wunderground v.1.15,2013-04-23 05:30:00,
2013-04-23 00:35:00,67.2,59.4,29.86,South,184,2.0,6.0,76,0.00,,,0.00,0,Wunderground v.1.15,2013-04-23 05:35:00,
2013-04-23 00:40:00,67.1,59.3,29.86,West,271,3.0,7.0,76,0.00,,,0.00,0,Wunderground v.1.15,2013-04-23 05:40:00,
2013-04-23 00:45:00,66.9,59.5,29.86,WNW,302,3.0,7.0,77,0.00,,,0.00,0,Wunderground v.1.15,2013-04-23 05:45:00,
2013-04-23 00:50:00,66.7,59.3,29.86,West,271,2.0,2.0,77,0.00,,,0.00,0,Wunderground v.1.15,2013-04-23 05:50:00,
2013-04-23 00:55:00,66.5,59.4,29.86,WSW,254,2.0,3.0,78,0.00,,,0.00,0,Wunderground v.1.15,2013-04-23 05:55:00,
2013-04-23 01:00:00,66.4,59.3,29.86,SSE,159,2.0,2.0,78,0.00,,,0.00,0,Wunderground v.1.15,2013-04-23 06:00:00,
2013-04-23 01:05:00,66.2,59.5,29.86,SE,131,3.0,3.0,79,0.00,,,0.00,0,Wunderground v.1.15,2013-04-23 06:05:00,
2013-04-23 01:10:00,66.1,59.4,29.85,ENE,65,2.0,3.0,79,0.00,,,0.00,0,Wunderground v.1.15,2013-04-23 06:10:00,
2013-04-23 01:20:00,65.7,59.4,29.86,South,177,2.0,2.0,80,0.00,,,0.00,0,Wunderground v.1.15,2013-04-23 06:20:00,
2013-04-23 01:25:00,65.5,59.5,29.86,NNW,334,2.0,2.0,81,0.00,,,0.00,0,Wunderground v.1.15,2013-04-23 06:25:00,
2013-04-23 01:30:00,65.4,59.4,29.85,West,275,2.0,2.0,81,0.00,,,0.00,0,Wunderground v.1.15,2013-04-23 06:30:00,
2013-04-23 01:35:00,65.3,59.3,29.86,ESE,111,2.0,2.0,81,0.00,,,0.00,0,Wunderground v.1.15,2013-04-23 06:35:00,
2013-04-23 01:45:00,65.0,59.4,29.86,East,90,2.0,5.0,82,0.00,,,0.00,0,Wunderground v.1.15,2013-04-23 06:45:00,
2013-04-23 01:55:00,64.7,59.4,29.85,South,183,2.0,2.0,83,0.00,,,0.00,0,Wunderground v.1.15,2013-04-23 06:55:00,
2013-04-23 02:00:00,64.5,59.6,29.84,WSW,251,2.0,4.0,84,0.00,,,0.00,0,Wunderground v.1.15,2013-04-23 07:00:00,
2013-04-23 02:05:00,64.4,59.5,29.84,WSW,240,2.0,4.0,84,0.00,,,0.00,0,Wunderground v.1.15,2013-04-23 07:05:00,
2013-04-23 02:10:00,64.2,59.6,29.85,NE,46,2.0,2.0,85,0.00,,,0.00,0,Wunderground v.1.15,2013-04-23 07:10:00,
2013-04-23 02:15:00,64.2,59.6,29.85,ESE,121,2.0,2.0,85,0.00,,,0.00,0,Wunderground v.1.15,2013-04-23 07:15:00,
2013-04-23 02:20:00,64.3,59.7,29.85,SW,227,2.0,2.0,85,0.00,,,0.00,0,Wunderground v.1.15,2013-04-23 07:20:00,
2013-04-23 02:25:00,64.4,60.1,29.85,SE,138,2.0,2.0,86,0.00,,,0.00,0,Wunderground v.1.15,2013-04-23 07:25:00,
2013-04-23 02:30:00,64.5,60.2,29.84,SSW,206,2.0,2.0,86,0.00,,,0.00,0,Wunderground v.1.15,2013-04-23 07:30:00,
2013-04-23 02:40:00,64.6,60.3,29.84,WSW,239,3.0,3.0,86,0.00,,,0.00,0,Wunderground v.1.15,2013-04-23 07:40:00,
2013-04-23 02:45:00,64.7,60.4,29.84,WSW,250,2.0,3.0,86,0.00,,,0.00,0,Wunderground v.1.15,2013-04-23 07:45:00,
2013-04-23 02:50:00,64.8,60.5,29.83,SW,229,2.0,2.0,86,0.00,,,0.00,0,Wunderground v.1.15,2013-04-23 07:50:00,
2013-04-23 02:55:00,64.8,60.5,29.83,North,11,3.0,3.0,86,0.00,,,0.00,0,Wunderground v.1.15,2013-04-23 07:55:00,
2013-04-23 03:00:00,64.8,60.5,29.83,WNW,289,3.0,3.0,86,0.00,,,0.00,0,Wunderground v.1.15,2013-04-23 08:00:00,
2013-04-23 03:05:00,64.8,60.8,29.83,NNW,338,2.0,3.0,87,0.00,,,0.00,0,Wunderground v.1.15,2013-04-23 08:05:00,
2013-04-23 03:10:00,64.8,60.8,29.83,West,259,3.0,6.0,87,0.00,,,0.00,0,Wunderground v.1.15,2013-04-23 08:10:00,
2013-04-23 03:20:00,64.8,60.8,29.83,East,98,3.0,5.0,87,0.00,,,0.00,0,Wunderground v.1.15,2013-04-23 08:20:00,
2013-04-23 03:25:00,64.8,61.2,29.82,WSW,250,3.0,5.0,88,0.00,,,0.00,0,Wunderground v.1.15,2013-04-23 08:25:00,
2013-04-23 03:30:00,64.8,61.2,29.82,West,265,3.0,8.0,88,0.00,,,0.00,0,Wunderground v.1.15,2013-04-23 08:30:00,
2013-04-23 03:35:00,64.8,61.2,29.82,East,91,3.0,8.0,88,0.00,,,0.00,0,Wunderground v.1.15,2013-04-23 08:35:00,
2013-04-23 03:40:00,64.8,61.2,29.82,WSW,256,2.0,5.0,88,0.00,,,0.00,0,Wunderground v.1.15,2013-04-23 08:40:00,
2013-04-23 03:50:00,64.8,61.2,29.82,East,97,2.0,2.0,88,0.00,,,0.00,0,Wunderground v.1.15,2013-04-23 08:50:00,
2013-04-23 03:55:00,64.9,61.3,29.82,East,85,2.0,2.0,88,0.00,,,0.00,0,Wunderground v.1.15,2013-04-23 08:55:00,
2013-04-23 04:00:00,64.9,61.3,29.82,WSW,258,2.0,2.0,88,0.00,,,0.00,0,Wunderground v.1.15,2013-04-23 09:00:00,
2013-04-23 04:05:00,65.0,61.4,29.82,NNE,19,2.0,3.0,88,0.00,,,0.00,0,Wunderground v.1.15,2013-04-23 09:05:00,
2013-04-23 04:10:00,65.0,61.4,29.82,East,79,2.0,2.0,88,0.00,,,0.00,0,Wunderground v.1.15,2013-04-23 09:10:00,
2013-04-23 04:15:00,65.1,61.5,29.81,WSW,251,2.0,2.0,88,0.00,,,0.00,0,Wunderground v.1.15,2013-04-23 09:15:00,
2013-04-23 04:20:00,65.2,61.6,29.81,WSW,255,2.0,3.0,88,0.00,,,0.00,0,Wunderground v.1.15,2013-04-23 09:20:00,
2013-04-23 04:25:00,65.2,61.2,29.81,East,93,2.0,3.0,87,0.00,,,0.00,0,Wunderground v.1.15,2013-04-23 09:25:00,
2013-04-23 04:30:00,65.3,61.3,29.81,South,190,2.0,5.0,87,0.00,,,0.00,0,Wunderground v.1.15,2013-04-23 09:30:00,
2013-04-23 04:35:00,65.4,61.4,29.81,West,265,2.0,5.0,87,0.00,,,0.00,0,Wunderground v.1.15,2013-04-23 09:35:00,
2013-04-23 04:40:00,65.4,61.4,29.81,West,265,2.0,2.0,87,0.00,,,0.00,0,Wunderground v.1.15,2013-04-23 09:40:00,
2013-04-23 04:45:00,65.5,61.5,29.81,ESE,120,2.0,2.0,87,0.00,,,0.00,0,Wunderground v.1.15,2013-04-23 09:45:00,
2013-04-23 04:50:00,65.5,61.5,29.81,ESE,108,3.0,3.0,87,0.00,,,0.00,0,Wunderground v.1.15,2013-04-23 09:50:00,
2013-04-23 04:55:00,65.5,61.5,29.81,West,281,2.0,3.0,87,0.00,,,0.00,0,Wunderground v.1.15,2013-04-23 09:55:00,
2013-04-23 05:00:00,65.6,61.6,29.81,SW,234,2.0,4.0,87,0.00,,,0.00,0,Wunderground v.1.15,2013-04-23 10:00:00,
2013-04-23 05:05:00,65.6,61.6,29.81,WSW,250,3.0,4.0,87,0.00,,,0.00,0,Wunderground v.1.15,2013-04-23 10:05:00,
2013-04-23 05:10:00,65.6,61.6,29.81,WSW,241,3.0,3.0,87,0.00,,,0.00,0,Wunderground v.1.15,2013-04-23 10:10:00,
2013-04-23 05:15:00,65.6,61.6,29.81,WSW,255,2.0,3.0,87,0.00,,,0.00,0,Wunderground v.1.15,2013-04-23 10:15:00,
2013-04-23 05:20:00,65.6,61.6,29.81,West,259,3.0,7.0,87,0.00,,,0.00,0,Wunderground v.1.15,2013-04-23 10:20:00,
2013-04-23 05:30:00,65.6,61.6,29.81,SSW,212,3.0,4.0,87,0.00,,,0.00,0,Wunderground v.1.15,2013-04-23 10:30:00,
2013-04-23 05:35:00,65.6,61.6,29.81,ENE,64,3.0,4.0,87,0.00,,,0.00,0,Wunderground v.1.15,2013-04-23 10:35:00,
2013-04-23 05:45:00,65.6,61.9,29.81,NW,325,3.0,4.0,88,0.00,,,0.00,0,Wunderground v.1.15,2013-04-23 10:45:00,
2013-04-23 05:50:00,65.6,61.9,29.81,SE,132,4.0,4.0,88,0.00,,,0.00,0,Wunderground v.1.15,2013-04-23 10:50:00,
2013-04-23 06:00:00,65.6,61.9,29.81,West,267,3.0,3.0,88,0.00,,,0.00,0,Wunderground v.1.15,2013-04-23 11:00:00,
2013-04-23 06:10:00,65.6,61.9,29.81,WSW,238,3.0,3.0,88,0.00,,,0.00,0,Wunderground v.1.15,2013-04-23 11:10:00,
2013-04-23 06:15:00,65.7,62.0,29.81,West,262,3.0,3.0,88,0.00,,,0.00,0,Wunderground v.1.15,2013-04-23 11:15:00,
2013-04-23 06:20:00,65.7,62.0,29.81,North,11,3.0,3.0,88,0.00,,,0.00,0,Wunderground v.1.15,2013-04-23 11:20:00,
2013-04-23 06:25:00,65.7,62.0,29.81,SSW,211,3.0,6.0,88,0.00,,,0.00,0,Wunderground v.1.15,2013-04-23 11:25:00,
2013-04-23 06:35:00,65.9,62.2,29.81,SSE,165,3.0,8.0,88,0.00,,,0.00,0,Wunderground v.1.15,2013-04-23 11:35:00,
2013-04-23 06:40:00,65.9,62.2,29.81,WSW,254,3.0,7.0,88,0.00,,,0.00,0,Wunderground v.1.15,2013-04-23 11:40:00,
2013-04-23 06:45:00,65.9,62.2,29.81,West,263,3.0,7.0,88,0.00,,,0.00,0,Wunderground v.1.15,2013-04-23 11:45:00,
2013-04-23 06:50:00,66.0,62.3,29.82,WSW,245,3.0,11.0,88,0.00,,,0.00,0,Wunderground v.1.15,2013-04-23 11:50:00,
2013-04-23 07:00:00,66.2,61.9,29.82,WSW,252,3.0,5.0,86,0.00,,,0.00,0,Wunderground v.1.15,2013-04-23 12:00:00,
2013-04-23 07:10:00,66.5,61.8,29.82,ESE,113,3.0,3.0,85,0.00,,,0.00,7,Wunderground v.1.15,2013-04-23 12:10:00,
2013-04-23 07:15:00,66.7,61.7,29.82,West,278,3.0,3.0,84,0.00,,,0.00,9,Wunderground v.1.15,2013-04-23 12:15:00,
2013-04-23 07:25:00,66.8,61.8,29.82,WSW,258,2.0,2.0,84,0.00,,,0.00,14,Wunderground v.1.15,2013-04-23 12:25:00,
2013-04-23 07:30:00,66.9,61.9,29.83,South,169,2.0,2.0,84,0.00,,,0.00,18,Wunderground v.1.15,2013-04-23 12:30:00,
2013-04-23 07:35:00,66.9,61.9,29.83,WSW,256,2.0,2.0,84,0.00,,,0.00,25,Wunderground v.1.15,2013-04-23 12:35:00,
2013-04-23 07:40:00,67.0,62.0,29.83,North,360,2.0,2.0,84,0.00,,,0.00,21,Wunderground v.1.15,2013-04-23 12:40:00,
2013-04-23 07:45:00,67.0,62.0,29.83,SE,125,1.0,2.0,84,0.00,,,0.00,21,Wunderground v.1.15,2013-04-23 12:45:00,
2013-04-23 07:55:00,67.0,62.3,29.84,ESE,120,1.0,1.0,85,0.00,,,0.00,32,Wunderground v.1.15,2013-04-23 12:55:00,
2013-04-23 08:00:00,67.0,62.3,29.84,SW,228,1.0,3.0,85,0.00,,,0.00,26,Wunderground v.1.15,2013-04-23 13:00:00,
2013-04-23 08:05:00,67.0,62.3,29.84,NW,306,1.0,3.0,85,0.00,,,0.00,19,Wunderground v.1.15,2013-04-23 13:05:00,
2013-04-23 08:10:00,67.0,62.3,29.85,SE,126,1.0,1.0,85,0.00,,,0.00,21,Wunderground v.1.15,2013-04-23 13:10:00,
2013-04-23 08:15:00,67.0,62.7,29.85,WSW,240,1.0,1.0,86,0.00,,,0.00,21,Wunderground v.1.15,2013-04-23 13:15:00,
2013-04-23 08:20:00,67.0,62.7,29.85,ESE,119,1.0,1.0,86,0.00,,,0.00,44,Wunderground v.1.15,2013-04-23 13:20:00,
2013-04-23 08:25:00,67.1,62.8,29.85,SE,145,1.0,1.0,86,0.00,,,0.00,60,Wunderground v.1.15,2013-04-23 13:25:00,
2013-04-23 08:30:00,67.2,62.5,29.85,South,184,1.0,2.0,85,0.00,,,0.00,56,Wunderground v.1.15,2013-04-23 13:30:00,
2013-04-23 08:35:00,67.3,62.6,29.85,NW,321,2.0,2.0,85,0.00,,,0.00,51,Wunderground v.1.15,2013-04-23 13:35:00,
2013-04-23 08:40:00,67.5,62.5,29.86,SSE,167,2.0,2.0,84,0.00,,,0.00,37,Wunderground v.1.15,2013-04-23 13:40:00,
2013-04-23 08:45:00,67.5,62.5,29.89,West,275,1.0,2.0,84,0.00,,,0.00,32,Wunderground v.1.15,2013-04-23 13:45:00,
2013-04-23 08:50:00,67.6,62.9,29.90,West,272,0.0,1.0,85,0.00,,,0.00,23,Wunderground v.1.15,2013-04-23 13:50:00,
2013-04-23 08:55:00,67.6,62.9,29.91,West,272,0.0,1.0,85,0.00,,,0.00,30,Wunderground v.1.15,2013-04-23 13:55:00,
2013-04-23 09:00:00,67.7,63.0,29.90,West,272,0.0,0.0,85,0.00,,,0.00,47,Wunderground v.1.15,2013-04-23 14:00:00,
2013-04-23 09:05:00,67.8,62.8,29.91,West,272,0.0,0.0,84,0.00,,,0.00,54,Wunderground v.1.15,2013-04-23 14:05:00,
2013-04-23 09:15:00,67.9,62.9,29.91,West,272,0.0,0.0,84,0.00,,,0.00,49,Wunderground v.1.15,2013-04-23 14:15:00,
2013-04-23 09:20:00,68.0,62.6,29.90,WSW,250,0.0,2.0,83,0.00,,,0.00,56,Wunderground v.1.15,2013-04-23 14:20:00,
2013-04-23 09:25:00,68.0,62.6,29.91,West,259,0.0,2.0,83,0.00,,,0.00,37,Wunderground v.1.15,2013-04-23 14:25:00,
2013-04-23 09:30:00,68.1,62.7,29.92,West,259,0.0,0.0,83,0.00,,,0.00,26,Wunderground v.1.15,2013-04-23 14:30:00,
2013-04-23 09:35:00,68.1,62.7,29.92,West,259,0.0,0.0,83,0.00,,,0.00,30,Wunderground v.1.15,2013-04-23 14:35:00,
2013-04-23 09:45:00,68.1,63.1,29.92,West,259,0.0,0.0,84,0.00,,,0.00,51,Wunderground v.1.15,2013-04-23 14:45:00,
2013-04-23 09:50:00,68.1,63.1,29.93,West,259,0.0,0.0,84,0.00,,,0.00,42,Wunderground v.1.15,2013-04-23 14:50:00,
2013-04-23 09:55:00,68.2,63.2,29.93,West,259,0.0,0.0,84,0.00,,,0.00,51,Wunderground v.1.15,2013-04-23 14:55:00,
2013-04-23 10:00:00,68.3,63.6,29.92,West,259,0.0,0.0,85,0.00,,,0.00,76,Wunderground v.1.15,2013-04-23 15:00:00,
2013-04-23 10:05:00,68.4,63.4,29.92,West,259,0.0,0.0,84,0.00,,,0.00,63,Wunderground v.1.15,2013-04-23 15:05:00,
2013-04-23 10:10:00,68.4,63.4,29.93,West,259,0.0,0.0,84,0.00,,,0.00,33,Wunderground v.1.15,2013-04-23 15:10:00,
2013-04-23 10:20:00,68.5,63.5,29.93,West,259,0.0,0.0,84,0.00,,,0.00,63,Wunderground v.1.15,2013-04-23 15:20:00,
2013-04-23 10:30:00,68.5,63.5,29.93,West,259,0.0,0.0,84,0.00,,,0.00,60,Wunderground v.1.15,2013-04-23 15:30:00,
2013-04-23 10:35:00,68.5,63.8,29.92,West,259,0.0,0.0,85,0.00,,,0.00,102,Wunderground v.1.15,2013-04-23 15:35:00,
2013-04-23 10:40:00,68.5,64.1,29.92,West,259,0.0,0.0,86,0.00,,,0.00,141,Wunderground v.1.15,2013-04-23 15:40:00,
2013-04-23 10:45:00,68.6,64.2,29.93,West,259,0.0,0.0,86,0.00,,,0.00,151,Wunderground v.1.15,2013-04-23 15:45:00,
2013-04-23 10:50:00,68.8,63.8,29.93,West,259,0.0,0.0,84,0.00,,,0.00,148,Wunderground v.1.15,2013-04-23 15:50:00,
2013-04-23 10:55:00,68.9,63.5,29.93,West,259,0.0,0.0,83,0.00,,,0.00,195,Wunderground v.1.15,2013-04-23 15:55:00,
2013-04-23 11:00:00,69.1,64.1,29.92,West,261,0.0,0.0,84,0.00,,,0.00,183,Wunderground v.1.15,2013-04-23 16:00:00,
2013-04-23 11:05:00,69.4,63.7,29.92,SW,219,0.0,0.0,82,0.00,,,0.00,251,Wunderground v.1.15,2013-04-23 16:05:00,
2013-04-23 11:10:00,69.7,63.3,29.93,SW,219,0.0,0.0,80,0.00,,,0.00,257,Wunderground v.1.15,2013-04-23 16:10:00,
2013-04-23 11:15:00,70.0,63.9,29.92,SW,219,0.0,1.0,81,0.00,,,0.00,241,Wunderground v.1.15,2013-04-23 16:15:00,
2013-04-23 11:20:00,70.4,63.6,29.92,WSW,242,0.0,1.0,79,0.00,,,0.00,308,Wunderground v.1.15,2013-04-23 16:20:00,
2013-04-23 11:30:00,71.0,63.8,29.93,ESE,115,0.0,0.0,78,0.00,,,0.00,195,Wunderground v.1.15,2013-04-23 16:30:00,
2013-04-23 11:35:00,71.2,64.0,29.93,ESE,115,0.0,0.0,78,0.00,,,0.00,250,Wunderground v.1.15,2013-04-23 16:35:00,
2013-04-23 11:40:00,71.5,63.9,29.93,ESE,115,0.0,0.0,77,0.00,,,0.00,320,Wunderground v.1.15,2013-04-23 16:40:00,
2013-04-23 11:45:00,71.9,63.5,29.93,South,183,0.0,0.0,75,0.00,,,0.00,334,Wunderground v.1.15,2013-04-23 16:45:00,
2013-04-23 11:50:00,72.1,63.7,29.93,West,271,0.0,3.0,75,0.00,,,0.00,299,Wunderground v.1.15,2013-04-23 16:50:00,
2013-04-23 12:00:00,72.1,63.4,29.92,West,279,0.0,0.0,74,0.00,,,0.00,153,Wunderground v.1.15,2013-04-23 17:00:00,
2013-04-23 12:10:00,71.8,63.8,29.92,West,279,0.0,0.0,76,0.00,,,0.00,199,Wunderground v.1.15,2013-04-23 17:10:00,
2013-04-23 12:15:00,71.7,63.7,29.93,West,279,0.0,0.0,76,0.00,,,0.00,146,Wunderground v.1.15,2013-04-23 17:15:00,
2013-04-23 12:25:00,72.0,64.0,29.92,West,279,0.0,0.0,76,0.00,,,0.00,127,Wunderground v.1.15,2013-04-23 17:25:00,
2013-04-23 12:30:00,72.0,64.0,29.92,West,279,0.0,0.0,76,0.00,,,0.00,134,Wunderground v.1.15,2013-04-23 17:30:00,
2013-04-23 12:35:00,72.0,63.3,29.92,West,279,0.0,0.0,74,0.00,,,0.00,223,Wunderground v.1.15,2013-04-23 17:35:00,
2013-04-23 12:40:00,72.1,63.7,29.92,West,279,0.0,0.0,75,0.00,,,0.00,348,Wunderground v.1.15,2013-04-23 17:40:00,
2013-04-23 12:45:00,72.5,64.1,29.92,West,275,0.0,0.0,75,0.00,,,0.00,380,Wunderground v.1.15,2013-04-23 17:45:00,
2013-04-23 12:55:00,73.3,63.7,29.92,WNW,285,0.0,0.0,72,0.00,,,0.00,359,Wunderground v.1.15,2013-04-23 17:55:00,
2013-04-23 13:00:00,73.9,63.9,29.92,WNW,285,0.0,0.0,71,0.00,,,0.00,455,Wunderground v.1.15,2013-04-23 18:00:00,
2013-04-23 13:10:00,74.2,63.8,29.91,SE,145,1.0,1.0,70,0.00,,,0.00,313,Wunderground v.1.15,2013-04-23 18:10:00,
2013-04-23 13:15:00,74.3,63.9,29.91,West,268,1.0,1.0,70,0.00,,,0.00,364,Wunderground v.1.15,2013-04-23 18:15:00,
2013-04-23 13:25:00,75.1,63.4,29.90,WSW,245,0.0,0.0,67,0.00,,,0.00,612,Wunderground v.1.15,2013-04-23 18:25:00,
2013-04-23 13:30:00,76.0,64.2,29.90,East,86,0.0,3.0,67,0.00,,,0.00,571,Wunderground v.1.15,2013-04-23 18:30:00,
2013-04-23 13:40:00,77.2,64.1,29.90,East,84,1.0,1.0,64,0.00,,,0.00,513,Wunderground v.1.15,2013-04-23 18:40:00,
2013-04-23 13:45:00,77.2,64.1,29.90,SSE,155,1.0,1.0,64,0.00,,,0.00,552,Wunderground v.1.15,2013-04-23 18:45:00,
2013-04-23 13:50:00,77.0,63.9,29.90,East,81,1.0,1.0,64,0.00,,,0.00,443,Wunderground v.1.15,2013-04-23 18:50:00,
2013-04-23 13:55:00,77.1,64.0,29.90,SE,130,1.0,1.0,64,0.00,,,0.00,390,Wunderground v.1.15,2013-04-23 18:55:00,
2013-04-23 14:00:00,76.8,64.1,29.90,ENE,69,1.0,1.0,65,0.00,,,0.00,376,Wunderground v.1.15,2013-04-23 19:00:00,
2013-04-23 14:10:00,76.1,57.2,29.90,SE,130,1.0,1.0,52,0.00,,,0.00,167,Wunderground v.1.15,2013-04-23 19:10:00,
2013-04-23 14:15:00,72.4,54.3,29.91,ENE,78,2.0,2.0,53,0.00,,,0.00,162,Wunderground v.1.15,2013-04-23 19:15:00,
2013-04-23 14:20:00,69.5,53.1,29.91,ENE,72,2.0,2.0,56,0.00,,,0.00,204,Wunderground v.1.15,2013-04-23 19:20:00,
2013-04-23 14:25:00,68.1,52.3,29.91,SE,140,2.0,2.0,57,0.00,,,0.00,265,Wunderground v.1.15,2013-04-23 19:25:00,
2013-04-23 14:30:00,67.7,52.9,29.91,SE,146,2.0,2.0,59,0.00,,,0.00,348,Wunderground v.1.15,2013-04-23 19:30:00,
2013-04-23 14:35:00,67.7,53.3,29.91,ESE,117,1.0,2.0,60,0.00,,,0.00,378,Wunderground v.1.15,2013-04-23 19:35:00,
2013-04-23 14:45:00,67.0,52.7,29.91,SE,129,2.0,2.0,60,0.00,,,0.00,190,Wunderground v.1.15,2013-04-23 19:45:00,
2013-04-23 14:50:00,66.7,52.4,29.91,SE,140,2.0,2.0,60,0.00,,,0.00,221,Wunderground v.1.15,2013-04-23 19:50:00,
2013-04-23 14:55:00,66.5,52.2,29.91,ESE,113,1.0,3.0,60,0.00,,,0.00,227,Wunderground v.1.15,2013-04-23 19:55:00,
2013-04-23 15:00:00,66.5,52.6,29.91,East,83,2.0,3.0,61,0.00,,,0.00,285,Wunderground v.1.15,2013-04-23 20:00:00,
2013-04-23 15:05:00,66.9,52.6,29.91,East,94,2.0,3.0,60,0.00,,,0.00,404,Wunderground v.1.15,2013-04-23 20:05:00,
2013-04-23 15:10:00,67.5,53.1,29.91,East,84,2.0,6.0,60,0.00,,,0.00,904,Wunderground v.1.15,2013-04-23 20:10:00,
2013-04-23 15:20:00,68.2,51.9,29.91,East,91,2.0,2.0,56,0.00,,,0.00,392,Wunderground v.1.15,2013-04-23 20:20:00,
2013-04-23 15:25:00,67.7,50.9,29.91,ENE,70,2.0,3.0,55,0.00,,,0.00,171,Wunderground v.1.15,2013-04-23 20:25:00,
2013-04-23 15:30:00,66.6,49.9,29.91,ESE,116,2.0,4.0,55,0.00,,,0.00,223,Wunderground v.1.15,2013-04-23 20:30:00,
2013-04-23 15:35:00,65.6,50.0,29.92,East,98,2.0,4.0,57,0.00,,,0.00,179,Wunderground v.1.15,2013-04-23 20:35:00,
2013-04-23 15:40:00,64.8,49.7,29.92,SE,143,2.0,3.0,58,0.00,,,0.00,202,Wunderground v.1.15,2013-04-23 20:40:00,
2013-04-23 15:50:00,64.8,49.7,29.92,East,96,2.0,5.0,58,0.00,,,0.00,246,Wunderground v.1.15,2013-04-23 20:50:00,
2013-04-23 15:55:00,64.4,49.3,29.92,East,79,2.0,5.0,58,0.00,,,0.00,246,Wunderground v.1.15,2013-04-23 20:55:00,
2013-04-23 16:00:00,63.4,48.8,29.91,ESE,115,3.0,3.0,59,0.00,,,0.00,149,Wunderground v.1.15,2013-04-23 21:00:00,
2013-04-23 16:05:00,62.7,48.2,29.91,East,100,3.0,5.0,59,0.00,,,0.00,167,Wunderground v.1.15,2013-04-23 21:05:00,
2013-04-23 16:10:00,62.1,48.5,29.91,ESE,113,3.0,3.0,61,0.00,,,0.00,250,Wunderground v.1.15,2013-04-23 21:10:00,
2013-04-23 16:15:00,62.0,48.0,29.92,SE,132,3.0,6.0,60,0.00,,,0.00,190,Wunderground v.1.15,2013-04-23 21:15:00,
2013-04-23 16:20:00,61.4,47.8,29.92,South,174,3.0,3.0,61,0.00,,,0.00,118,Wunderground v.1.15,2013-04-23 21:20:00,
2013-04-23 16:25:00,60.7,47.6,29.92,SE,136,3.0,3.0,62,0.00,,,0.00,183,Wunderground v.1.15,2013-04-23 21:25:00,
2013-04-23 16:30:00,60.6,47.5,29.92,South,186,2.0,4.0,62,0.00,,,0.00,260,Wunderground v.1.15,2013-04-23 21:30:00,
2013-04-23 16:35:00,60.8,48.1,29.92,SSW,194,2.0,4.0,63,0.00,,,0.00,237,Wunderground v.1.15,2013-04-23 21:35:00,
2013-04-23 16:40:00,60.5,47.0,29.92,SE,136,2.0,2.0,61,0.00,,,0.00,123,Wunderground v.1.15,2013-04-23 21:40:00,
2013-04-23 16:45:00,60.1,47.5,29.92,ESE,119,2.0,2.0,63,0.00,,,0.00,160,Wunderground v.1.15,2013-04-23 21:45:00,
2013-04-23 16:50:00,59.6,46.6,29.92,East,93,2.0,3.0,62,0.00,,,0.00,118,Wunderground v.1.15,2013-04-23 21:50:00,
2013-04-23 16:55:00,58.9,46.3,29.92,SE,129,2.0,3.0,63,0.00,,,0.00,109,Wunderground v.1.15,2013-04-23 21:55:00,
2013-04-23 17:00:00,58.6,46.5,29.92,ENE,61,2.0,2.0,64,0.00,,,0.00,127,Wunderground v.1.15,2013-04-23 22:00:00,
2013-04-23 17:05:00,58.4,46.7,29.92,ESE,113,2.0,8.0,65,0.00,,,0.00,88,Wunderground v.1.15,2013-04-23 22:05:00,
2013-04-23 17:10:00,58.0,46.3,29.93,East,96,2.0,2.0,65,0.00,,,0.00,47,Wunderground v.1.15,2013-04-23 22:10:00,
2013-04-23 17:15:00,57.5,45.8,29.93,SE,145,2.0,2.0,65,0.00,,,0.00,86,Wunderground v.1.15,2013-04-23 22:15:00,
2013-04-23 17:20:00,57.1,45.8,29.92,ESE,113,2.0,4.0,66,0.00,,,0.00,144,Wunderground v.1.15,2013-04-23 22:20:00,
2013-04-23 17:30:00,57.2,45.9,29.93,East,94,2.0,2.0,66,0.00,,,0.00,171,Wunderground v.1.15,2013-04-23 22:30:00,
2013-04-23 17:35:00,57.2,45.9,29.93,ESE,115,1.0,2.0,66,0.00,,,0.00,90,Wunderground v.1.15,2013-04-23 22:35:00,
2013-04-23 17:40:00,57.1,45.8,29.93,SE,142,1.0,2.0,66,0.00,,,0.00,125,Wunderground v.1.15,2013-04-23 22:40:00,
2013-04-23 17:45:00,56.9,45.7,29.93,East,90,1.0,2.0,66,0.00,,,0.00,95,Wunderground v.1.15,2013-04-23 22:45:00,
2013-04-23 17:50:00,56.7,45.5,29.93,WNW,285,2.0,2.0,66,0.00,,,0.00,81,Wunderground v.1.15,2013-04-23 22:50:00,
2013-04-23 18:00:00,56.5,45.7,29.93,SE,132,1.0,1.0,67,0.00,,,0.00,155,Wunderground v.1.15,2013-04-23 23:00:00,
2013-04-23 18:10:00,56.6,45.4,29.94,East,100,2.0,2.0,66,0.00,,,0.00,93,Wunderground v.1.15,2013-04-23 23:10:00,
2013-04-23 18:15:00,56.5,45.7,29.94,East,90,2.0,3.0,67,0.00,,,0.00,83,Wunderground v.1.15,2013-04-23 23:15:00,
2013-04-23 18:20:00,56.3,45.1,29.94,East,96,2.0,3.0,66,0.00,,,0.00,97,Wunderground v.1.15,2013-04-23 23:20:00,
2013-04-23 18:25:00,56.3,45.1,29.93,East,83,2.0,3.0,66,0.00,,,0.00,123,Wunderground v.1.15,2013-04-23 23:25:00,
2013-04-23 18:35:00,56.2,45.4,29.94,SE,134,1.0,2.0,67,0.00,,,0.00,91,Wunderground v.1.15,2013-04-23 23:35:00,
2013-04-23 18:40:00,56.0,44.8,29.94,ESE,123,1.0,4.0,66,0.00,,,0.00,79,Wunderground v.1.15,2013-04-23 23:40:00,
2013-04-23 18:45:00,55.7,44.9,29.94,NE,37,2.0,4.0,67,0.00,,,0.00,123,Wunderground v.1.15,2013-04-23 23:45:00,
2013-04-23 18:50:00,55.5,44.7,29.95,SSE,148,2.0,2.0,67,0.00,,,0.00,72,Wunderground v.1.15,2013-04-23 23:50:00,
2013-04-23 18:55:00,55.4,44.6,29.95,ESE,103,2.0,2.0,67,0.00,,,0.00,58,Wunderground v.1.15,2013-04-23 23:55:00,
2013-04-23 19:05:00,55.2,44.8,29.96,ESE,119,1.0,2.0,68,0.00,,,0.00,28,Wunderground v.1.15,2013-04-24 00:05:00,
2013-04-23 19:10:00,54.9,44.5,29.96,SE,142,1.0,2.0,68,0.00,,,0.00,23,Wunderground v.1.15,2013-04-24 00:10:00,
2013-04-23 19:15:00,54.6,44.2,29.97,SE,134,1.0,2.0,68,0.00,,,0.00,16,Wunderground v.1.15,2013-04-24 00:15:00,
2013-04-23 19:20:00,54.5,44.2,29.96,NNE,32,1.0,1.0,68,0.00,,,0.00,21,Wunderground v.1.15,2013-04-24 00:20:00,
2013-04-23 19:25:00,54.3,44.0,29.97,South,175,1.0,1.0,68,0.00,,,0.00,16,Wunderground v.1.15,2013-04-24 00:25:00,
2013-04-23 19:30:00,54.3,44.0,29.97,ESE,116,1.0,1.0,68,0.00,,,0.00,12,Wunderground v.1.15,2013-04-24 00:30:00,
2013-04-23 19:35:00,54.2,43.9,29.97,East,91,1.0,5.0,68,0.00,,,0.00,11,Wunderground v.1.15,2013-04-24 00:35:00,
2013-04-23 19:40:00,54.1,44.2,29.97,SE,127,1.0,1.0,69,0.00,,,0.00,9,Wunderground v.1.15,2013-04-24 00:40:00,
2013-04-23 19:45:00,53.9,44.0,29.97,WNW,297,1.0,1.0,69,0.00,,,0.00,5,Wunderground v.1.15,2013-04-24 00:45:00,
2013-04-23 19:50:00,53.8,43.9,29.97,SE,135,1.0,1.0,69,0.00,,,0.00,5,Wunderground v.1.15,2013-04-24 00:50:00,
2013-04-23 19:55:00,53.6,43.7,29.97,ESE,107,1.0,1.0,69,0.00,,,0.00,0,Wunderground v.1.15,2013-04-24 00:55:00,
2013-04-23 20:00:00,53.4,43.5,29.97,East,92,1.0,1.0,69,0.00,,,0.00,0,Wunderground v.1.15,2013-04-24 01:00:00,
2013-04-23 20:05:00,53.3,43.4,29.98,ESE,115,1.0,1.0,69,0.00,,,0.00,0,Wunderground v.1.15,2013-04-24 01:05:00,
2013-04-23 20:10:00,53.0,43.1,29.98,East,94,1.0,2.0,69,0.00,,,0.00,0,Wunderground v.1.15,2013-04-24 01:10:00,
2013-04-23 20:15:00,52.9,43.4,29.98,ESE,122,1.0,2.0,70,0.00,,,0.00,0,Wunderground v.1.15,2013-04-24 01:15:00,
2013-04-23 20:25:00,52.7,43.2,29.99,ESE,109,2.0,2.0,70,0.00,,,0.00,0,Wunderground v.1.15,2013-04-24 01:25:00,
2013-04-23 20:30:00,52.6,43.1,29.99,ESE,102,1.0,3.0,70,0.00,,,0.00,0,Wunderground v.1.15,2013-04-24 01:30:00,
2013-04-23 20:40:00,52.4,42.9,30.00,ESE,120,1.0,1.0,70,0.00,,,0.00,0,Wunderground v.1.15,2013-04-24 01:40:00,
2013-04-23 20:45:00,52.3,42.8,30.01,NNE,31,1.0,3.0,70,0.00,,,0.00,0,Wunderground v.1.15,2013-04-24 01:45:00,
2013-04-23 20:50:00,52.1,42.6,30.01,ESE,120,1.0,2.0,70,0.00,,,0.00,0,Wunderground v.1.15,2013-04-24 01:50:00,
2013-04-23 20:55:00,51.9,42.8,30.01,East,101,1.0,2.0,71,0.00,,,0.00,0,Wunderground v.1.15,2013-04-24 01:55:00,
2013-04-23 21:00:00,51.8,42.7,30.02,East,96,1.0,1.0,71,0.00,,,0.00,0,Wunderground v.1.15,2013-04-24 02:00:00,
2013-04-23 21:05:00,51.6,42.5,30.03,SSW,194,1.0,2.0,71,0.00,,,0.00,0,Wunderground v.1.15,2013-04-24 02:05:00,
2013-04-23 21:15:00,51.2,42.1,30.03,East,101,2.0,2.0,71,0.00,,,0.00,0,Wunderground v.1.15,2013-04-24 02:15:00,
2013-04-23 21:20:00,51.1,42.4,30.04,SE,141,1.0,2.0,72,0.00,,,0.00,0,Wunderground v.1.15,2013-04-24 02:20:00,
2013-04-23 21:30:00,50.8,42.5,30.04,SSW,211,1.0,1.0,73,0.00,,,0.00,0,Wunderground v.1.15,2013-04-24 02:30:00,
2013-04-23 21:35:00,50.6,41.9,30.04,ENE,72,1.0,1.0,72,0.00,,,0.00,0,Wunderground v.1.15,2013-04-24 02:35:00,
2013-04-23 21:40:00,50.6,42.3,30.04,East,96,1.0,1.0,73,0.00,,,0.00,0,Wunderground v.1.15,2013-04-24 02:40:00,
2013-04-23 21:50:00,50.6,42.3,30.05,ESE,111,1.0,5.0,73,0.00,,,0.00,0,Wunderground v.1.15,2013-04-24 02:50:00,
2013-04-23 21:55:00,50.5,42.2,30.05,ESE,106,1.0,5.0,73,0.00,,,0.00,0,Wunderground v.1.15,2013-04-24 02:55:00,
2013-04-23 22:00:00,50.3,42.3,30.06,ESE,110,1.0,1.0,74,0.00,,,0.00,0,Wunderground v.1.15,2013-04-24 03:00:00,
2013-04-23 22:10:00,50.1,42.1,30.06,South,181,1.0,1.0,74,0.00,,,0.00,0,Wunderground v.1.15,2013-04-24 03:10:00,
2013-04-23 22:15:00,50.0,42.0,30.06,SW,234,1.0,3.0,74,0.00,,,0.00,0,Wunderground v.1.15,2013-04-24 03:15:00,
2013-04-23 22:20:00,49.9,41.9,30.06,SSE,147,2.0,2.0,74,0.00,,,0.00,0,Wunderground v.1.15,2013-04-24 03:20:00,
2013-04-23 22:25:00,49.7,41.7,30.07,WSW,250,1.0,2.0,74,0.00,,,0.00,0,Wunderground v.1.15,2013-04-24 03:25:00,
2013-04-23 22:30:00,49.7,41.7,30.07,ENE,70,1.0,3.0,74,0.00,,,0.00,0,Wunderground v.1.15,2013-04-24 03:30:00,
2013-04-23 22:35:00,49.5,41.6,30.08,ESE,108,2.0,3.0,74,0.00,,,0.00,0,Wunderground v.1.15,2013-04-24 03:35:00,
2013-04-23 22:40:00,49.4,41.5,30.08,East,82,2.0,3.0,74,0.00,,,0.00,0,Wunderground v.1.15,2013-04-24 03:40:00,
2013-04-23 22:45:00,49.4,41.5,30.09,ENE,66,2.0,3.0,74,0.00,,,0.00,0,Wunderground v.1.15,2013-04-24 03:45:00,
2013-04-23 22:50:00,49.2,41.3,30.09,ESE,107,2.0,2.0,74,0.00,,,0.00,0,Wunderground v.1.15,2013-04-24 03:50:00,
2013-04-23 22:55:00,49.1,41.2,30.09,South,182,2.0,2.0,74,0.00,,,0.00,0,Wunderground v.1.15,2013-04-24 03:55:00,
2013-04-23 23:00:00,49.0,41.1,30.09,ESE,121,2.0,2.0,74,0.00,,,0.00,0,Wunderground v.1.15,2013-04-24 04:00:00,
2013-04-23 23:05:00,49.0,41.1,30.09,East,89,1.0,2.0,74,0.00,,,0.00,0,Wunderground v.1.15,2013-04-24 04:05:00,
2013-04-23 23:10:00,48.9,41.3,30.09,East,95,1.0,2.0,75,0.00,,,0.00,0,Wunderground v.1.15,2013-04-24 04:10:00,
2013-04-23 23:15:00,48.9,41.3,30.10,West,277,1.0,2.0,75,0.00,,,0.00,0,Wunderground v.1.15,2013-04-24 04:15:00,
2013-04-23 23:20:00,48.8,41.2,30.11,SSW,194,2.0,2.0,75,0.00,,,0.00,0,Wunderground v.1.15,2013-04-24 04:20:00,
2013-04-23 23:25:00,48.7,41.1,30.11,ESE,103,1.0,2.0,75,0.00,,,0.00,0,Wunderground v.1.15,2013-04-24 04:25:00,
2013-04-23 23:30:00,48.6,41.0,30.11,ESE,103,2.0,2.0,75,0.00,,,0.00,0,Wunderground v.1.15,2013-04-24 04:30:00,
2013-04-23 23:35:00,48.5,40.9,30.12,ESE,117,2.0,2.0,75,0.00,,,0.00,0,Wunderground v.1.15,2013-04-24 04:35:00,
2013-04-23 23:40:00,48.3,40.7,30.12,East,94,2.0,3.0,75,0.00,,,0.00,0,Wunderground v.1.15,2013-04-24 04:40:00,
2013-04-23 23:45:00,48.2,41.0,30.12,East,93,2.0,3.0,76,0.00,,,0.00,0,Wunderground v.1.15,2013-04-24 04:45:00,
2013-04-23 23:50:00,48.1,41.2,30.12,SE,125,2.0,2.0,77,0.00,,,0.00,0,Wunderground v.1.15,2013-04-24 04:50:00,